Location: Mahannah Oil Field
(37.4664°N, 96.6003°W)
Time: 02:06:29
(UTC+00:00)

A-11 Canister half - Pass Details

Date: 25 January 2021
Orbit: 1524 x 1684 km, 47.3° (Epoch: 25 February)

Event Time Altitude Azimuth Distance (km) Brightness Sun altitude
Rises 04:38:25 0° 297° (WNW) 4,807 12.1 -57.9°
Reaches altitude 10° 04:41:53 10° 289° (WNW) 3,843 11.4 -58.5°
Enters shadow 04:44:20 18° 279° (W) 3,249 10.9 -58.9°
Maximum altitude 04:50:13 33° 230° (SW) 2,529 - -59.9°
Drops below altitude 10° 04:58:44 10° 172° (S) 3,920 - -61.4°
Sets 05:02:21 0° 163° (SSE) 4,916 - -62.0°
